| time (UTC) | temp F | wind direction | speed knots | gust knots | rain 1hr in | rain 24hr in | rain mn in | humidity % | barometer mb |
| 20260504081505 | 47 | 123 | 0.0 | 0.0 | 0.00 | 0.00 | 0.00 | 63 | 996.0 |
| 20260504050006 | 48 | 123 | 0.0 | 0.0 | 0.00 | 0.00 | 0.00 | 59 | 995.2 |
| 20260504044505 | 48 | 123 | 0.0 | 0.0 | 0.00 | 0.00 | 0.00 | 60 | 995.1 |
| 20260504043006 | 47 | 123 | 0.0 | 0.0 | 0.00 | 0.00 | 0.00 | 60 | 995.0 |
| 20260504041506 | 46 | 123 | 0.0 | 0.0 | 0.00 | 0.00 | 0.00 | 63 | 994.9 |
| 20260504040006 | 46 | 123 | 0.0 | 0.0 | 0.00 | 0.08 | 0.00 | 66 | 994.9 |
| 20260504034505 | 43 | 123 | 0.0 | 0.0 | 0.00 | 0.08 | 0.00 | 70 | 994.9 |
| 20260504033005 | 42 | 123 | 0.0 | 0.0 | 0.00 | 0.08 | 0.00 | 78 | 995.1 |
| 20260504031506 | 41 | 123 | 0.0 | 0.0 | 0.00 | 0.08 | 0.00 | 82 | 995.1 |
| 20260504030006 | 41 | 123 | 0.0 | 0.0 | 0.00 | 0.08 | 0.00 | 83 | 995.2 |
| 20260504024505 | 41 | 123 | 0.0 | 0.0 | 0.00 | 0.08 | 0.00 | 82 | 995.3 |
| 20260504023006 | 42 | 123 | 0.0 | 0.0 | 0.00 | 0.08 | 0.00 | 79 | 995.4 |
| 20260504021505 | 42 | 123 | 0.0 | 0.0 | 0.00 | 0.08 | 0.00 | 79 | 995.3 |
| 20260504020005 | 43 | 123 | 0.0 | 0.0 | 0.00 | 0.08 | 0.00 | 75 | 995.4 |
| 20260504014505 | 43 | 123 | 0.0 | 0.0 | 0.00 | 0.08 | 0.00 | 73 | 995.3 |
| 20260504013006 | 44 | 123 | 0.0 | 0.0 | 0.00 | 0.08 | 0.00 | 70 | 995.2 |
| 20260504011505 | 45 | 123 | 0.0 | 0.0 | 0.00 | 0.08 | 0.00 | 69 | 995.2 |
| 20260504010006 | 46 | 123 | 0.0 | 0.0 | 0.00 | 0.08 | 0.00 | 64 | 995.0 |
| 20260504004505 | 48 | 123 | 0.0 | 0.0 | 0.00 | 0.08 | 0.00 | 60 | 994.9 |
| 20260504003006 | 50 | 123 | 0.0 | 0.0 | 0.00 | 0.08 | 0.00 | 54 | 994.7 |
| 20260504001507 | 52 | 123 | 0.0 | 0.0 | 0.00 | 0.08 | 0.00 | 48 | 994.4 |
| 20260504000006 | 55 | 123 | 0.0 | 0.0 | 0.00 | 0.08 | 0.00 | 44 | 994.3 |
| 20260503234505 | 56 | 123 | 0.0 | 0.0 | 0.00 | 0.08 | 0.00 | 42 | 994.1 |
| 20260503233006 | 57 | 123 | 0.0 | 0.0 | 0.00 | 0.08 | 0.00 | 40 | 993.9 |
| 20260503230005 | 58 | 123 | 0.0 | 0.0 | 0.00 | 0.08 | 0.00 | 38 | 993.5 |
| 20260503224506 | 58 | 123 | 0.0 | 0.0 | 0.00 | 0.08 | 0.00 | 38 | 993.4 |
| 20260503223005 | 58 | 123 | 0.0 | 0.0 | 0.00 | 0.08 | 0.00 | 38 | 993.5 |
| 20260503221506 | 59 | 123 | 0.0 | 0.0 | 0.00 | 0.08 | 0.00 | 35 | 993.3 |
| 20260503214506 | 59 | 123 | 0.0 | 0.0 | 0.00 | 0.08 | 0.00 | 34 | 993.2 |
| 20260503213006 | 59 | 123 | 0.0 | 0.0 | 0.00 | 0.08 | 0.00 | 34 | 993.0 |
| 20260503210006 | 59 | 123 | 0.0 | 0.0 | 0.00 | 0.08 | 0.00 | 33 | 993.1 |
| 20260503204505 | 60 | 123 | 0.0 | 0.0 | 0.00 | 0.08 | 0.00 | 36 | 993.1 |
| 20260503203006 | 59 | 123 | 0.0 | 0.0 | 0.00 | 0.08 | 0.00 | 34 | 993.1 |
| 20260503201506 | 59 | 123 | 0.0 | 0.0 | 0.00 | 0.08 | 0.00 | 37 | 993.4 |
| 20260503194506 | 58 | 123 | 0.0 | 0.0 | 0.00 | 0.08 | 0.00 | 36 | 993.1 |
| 20260503193006 | 55 | 123 | 0.0 | 0.0 | 0.00 | 0.08 | 0.00 | 37 | 993.9 |
| 20260503190005 | 58 | 123 | 0.0 | 0.0 | 0.00 | 0.08 | 0.00 | 38 | 993.7 |
| 20260503184506 | 56 | 123 | 0.0 | 0.0 | 0.00 | 0.08 | 0.00 | 37 | 993.9 |
| 20260503183010 | 56 | 123 | 0.0 | 0.0 | 0.00 | 0.08 | 0.00 | 39 | 994.0 |
| 20260503181506 | 55 | 123 | 0.0 | 0.0 | 0.00 | 0.08 | 0.00 | 40 | 994.3 |
| 20260503180006 | 56 | 123 | 0.0 | 0.0 | 0.00 | 0.08 | 0.00 | 40 | 994.1 |
| 20260503174506 | 55 | 123 | 0.0 | 0.0 | 0.00 | 0.08 | 0.00 | 41 | 993.8 |